User: anonymous   Login
Location: ?
(35.4214°N, 139.3011°E)
Time: 08:59:40
(UTC+00:00)
Language:

OAO 3 Copernicus - Orbit

View from above orbital plane
View from above orbital plane
View from above satellite
View from above satellite

Ground track
Ground track

The orbit data is extracted from the following two-line orbital elements,

1  6153U 72065A   20272.75320832  .00000044  00000-0  13867-4 0  9995
2  6153  35.0069  79.1789 0006208 135.7570 241.5385 14.57951637556041
Epoch (UTC): 28 September 2020 18:04:37
Eccentricity: 0.0006208
inclination: 35.0069°
perigee height: 695 km
apogee height: 704 km
right ascension of ascending node: 79.1789°
argument of perigee: 135.7570°
revolutions per day: 14.57951637
mean anomaly at epoch: 241.5385°
orbit number at epoch: 55604

The dashed part of the orbit path shows where the satellite is in the earth's shadow,  

DLR